| time (UTC) | temp C | wind direction | speed KPH | gust KPH | rain 1hr cm | rain 24hr cm | rain mn cm | humidity % | barometer mb |
| 20260906225837 | 25 | 0 | 4.8 | 17.7 | 0.00 | 0.46 | 0.00 | 41 | 1003.6 |
| 20260906224708 | 25 | 0 | 3.2 | 17.7 | 0.00 | 0.46 | 0.00 | 41 | 1003.7 |
| 20260906224149 | 25 | 0 | 4.8 | 17.7 | 0.00 | 0.46 | 0.00 | 41 | 1003.8 |
| 20260906223647 | 25 | 0 | 6.4 | 17.7 | 0.00 | 0.46 | 0.00 | 41 | 1003.8 |
| 20260906222531 | 25 | 0 | 6.4 | 17.7 | 0.00 | 0.46 | 0.00 | 42 | 1003.9 |
| 20260906222018 | 25 | 0 | 4.8 | 14.5 | 0.00 | 0.46 | 0.00 | 43 | 1004.0 |
| 20260906221523 | 24 | 0 | 3.2 | 14.5 | 0.00 | 0.46 | 0.00 | 45 | 1004.0 |
| 20260906221005 | 24 | 0 | 3.2 | 16.1 | 0.00 | 0.46 | 0.00 | 45 | 1004.1 |
| 20260906220456 | 24 | 0 | 3.2 | 16.1 | 0.00 | 0.46 | 0.00 | 44 | 1004.3 |
| 20260906215948 | 24 | 0 | 4.8 | 16.1 | 0.00 | 0.46 | 0.00 | 44 | 1004.2 |
| 20260906215455 | 24 | 0 | 4.8 | 16.1 | 0.00 | 0.46 | 0.00 | 45 | 1004.6 |
| 20260906214958 | 23 | 0 | 4.8 | 16.1 | 0.00 | 0.46 | 0.00 | 45 | 1004.8 |
| 20260906214439 | 23 | 0 | 4.8 | 16.1 | 0.00 | 0.46 | 0.00 | 46 | 1004.8 |
| 20260906213259 | 23 | 0 | 4.8 | 14.5 | 0.00 | 0.46 | 0.00 | 45 | 1005.0 |
| 20260906212757 | 24 | 0 | 3.2 | 17.7 | 0.00 | 0.46 | 0.00 | 44 | 1005.0 |
| 20260906212247 | 25 | 0 | 4.8 | 17.7 | 0.00 | 0.46 | 0.00 | 43 | 1004.9 |
| 20260906211755 | 25 | 0 | 4.8 | 17.7 | 0.00 | 0.46 | 0.00 | 41 | 1005.0 |
| 20260906211301 | 25 | 0 | 4.8 | 17.7 | 0.00 | 0.46 | 0.00 | 43 | 1004.9 |
| 20260906210130 | 25 | 0 | 6.4 | 22.5 | 0.00 | 0.46 | 0.00 | 43 | 1005.0 |
| 20260906205636 | 25 | 0 | 4.8 | 22.5 | 0.00 | 0.46 | 0.00 | 44 | 1005.1 |
| 20260906203904 | 24 | 0 | 4.8 | 17.7 | 0.00 | 0.46 | 0.00 | 44 | 1005.5 |
| 20260906203354 | 25 | 0 | 4.8 | 17.7 | 0.00 | 0.46 | 0.00 | 43 | 1005.4 |
| 20260906202859 | 25 | 0 | 4.8 | 17.7 | 0.00 | 0.46 | 0.00 | 43 | 1005.3 |
| 20260906202408 | 25 | 0 | 4.8 | 17.7 | 0.00 | 0.46 | 0.00 | 42 | 1005.4 |
| 20260906201852 | 25 | 0 | 3.2 | 14.5 | 0.00 | 0.46 | 0.00 | 40 | 1005.4 |
| 20260906200736 | 25 | 0 | 3.2 | 16.1 | 0.00 | 0.46 | 0.00 | 41 | 1005.5 |
| 20260906200232 | 25 | 0 | 4.8 | 24.1 | 0.00 | 0.46 | 0.00 | 41 | 1005.6 |
| 20260906195737 | 25 | 0 | 4.8 | 24.1 | 0.00 | 0.46 | 0.00 | 40 | 1005.8 |
| 20260906195233 | 25 | 0 | 6.4 | 24.1 | 0.00 | 0.46 | 0.00 | 40 | 1005.6 |
| 20260906194714 | 25 | 0 | 6.4 | 24.1 | 0.00 | 0.46 | 0.00 | 39 | 1005.7 |
| 20260906194206 | 25 | 0 | 4.8 | 24.1 | 0.00 | 0.46 | 0.00 | 39 | 1005.7 |
| 20260906193650 | 25 | 0 | 4.8 | 24.1 | 0.00 | 0.46 | 0.00 | 37 | 1005.8 |
| 20260906193150 | 25 | 0 | 6.4 | 24.1 | 0.00 | 0.46 | 0.00 | 39 | 1005.8 |
| 20260906192641 | 25 | 0 | 6.4 | 24.1 | 0.00 | 0.46 | 0.00 | 39 | 1005.8 |
| 20260906192147 | 25 | 0 | 4.8 | 17.7 | 0.00 | 0.46 | 0.00 | 40 | 1006.0 |
| 20260906191638 | 25 | 0 | 3.2 | 17.7 | 0.00 | 0.46 | 0.00 | 38 | 1006.1 |
| 20260906191143 | 25 | 0 | 3.2 | 12.9 | 0.00 | 0.46 | 0.00 | 35 | 1006.1 |
| 20260906190649 | 25 | 0 | 1.6 | 6.4 | 0.00 | 0.46 | 0.00 | 34 | 1006.2 |
| 20260906190157 | 25 | 0 | 3.2 | 11.3 | 0.00 | 0.46 | 0.00 | 34 | 1006.2 |
| 20260906185701 | 25 | 0 | 3.2 | 11.3 | 0.00 | 0.46 | 0.00 | 34 | 1006.3 |
| 20260906184539 | 24 | 0 | 3.2 | 14.5 | 0.00 | 0.46 | 0.00 | 36 | 1006.6 |
| 20260906184045 | 24 | 0 | 3.2 | 14.5 | 0.00 | 0.46 | 0.00 | 35 | 1006.6 |
| 20260906183553 | 24 | 0 | 3.2 | 14.5 | 0.00 | 0.46 | 0.00 | 34 | 1006.7 |
| 20260906183100 | 24 | 0 | 3.2 | 11.3 | 0.00 | 0.46 | 0.00 | 34 | 1006.8 |
| 20260906182606 | 24 | 0 | 1.6 | 6.4 | 0.00 | 0.46 | 0.00 | 35 | 1007.0 |
| 20260906182054 | 24 | 0 | 1.6 | 14.5 | 0.00 | 0.46 | 0.00 | 35 | 1007.1 |
| 20260906181548 | 24 | 0 | 3.2 | 14.5 | 0.00 | 0.46 | 0.00 | 35 | 1007.3 |
| 20260906181042 | 23 | 0 | 3.2 | 14.5 | 0.00 | 0.46 | 0.00 | 36 | 1007.3 |
| 20260906180540 | 23 | 0 | 1.6 | 14.5 | 0.00 | 0.46 | 0.00 | 36 | 1007.3 |
| 20260906180023 | 23 | 0 | 3.2 | 14.5 | 0.00 | 0.46 | 0.00 | 37 | 1007.4 |
| 20260906175512 | 23 | 0 | 3.2 | 14.5 | 0.00 | 0.46 | 0.00 | 37 | 1007.5 |
| 20260906175007 | 23 | 0 | 3.2 | 12.9 | 0.00 | 0.46 | 0.00 | 39 | 1007.6 |
| 20260906174449 | 23 | 0 | 3.2 | 16.1 | 0.00 | 0.46 | 0.00 | 39 | 1007.8 |
| 20260906173939 | 23 | 0 | 3.2 | 16.1 | 0.00 | 0.46 | 0.00 | 39 | 1007.9 |
| 20260906172833 | 22 | 0 | 3.2 | 14.5 | 0.00 | 0.46 | 0.00 | 40 | 1007.9 |
| 20260906172315 | 22 | 0 | 3.2 | 14.5 | 0.00 | 0.46 | 0.00 | 41 | 1008.0 |
| 20260906171215 | 22 | 0 | 4.8 | 16.1 | 0.00 | 0.46 | 0.00 | 41 | 1008.1 |
| 20260906170704 | 22 | 0 | 3.2 | 16.1 | 0.00 | 0.46 | 0.00 | 42 | 1008.1 |
| 20260906170156 | 22 | 0 | 3.2 | 16.1 | 0.00 | 0.46 | 0.00 | 41 | 1008.2 |
| 20260906165647 | 22 | 0 | 3.2 | 12.9 | 0.00 | 0.46 | 0.00 | 43 | 1008.2 |
| 20260906165129 | 22 | 0 | 3.2 | 12.9 | 0.00 | 0.46 | 0.00 | 42 | 1008.2 |
| 20260906164611 | 22 | 0 | 3.2 | 12.9 | 0.00 | 0.46 | 0.00 | 42 | 1008.3 |
| 20260906164117 | 22 | 0 | 3.2 | 12.9 | 0.00 | 0.46 | 0.00 | 41 | 1008.2 |
| 20260906163604 | 22 | 0 | 1.6 | 8.0 | 0.00 | 0.46 | 0.00 | 41 | 1008.2 |
| 20260906163105 | 22 | 0 | 0.0 | 6.4 | 0.00 | 0.46 | 0.00 | 43 | 1008.2 |
| 20260906162600 | 22 | 0 | 1.6 | 6.4 | 0.00 | 0.46 | 0.00 | 43 | 1008.3 |
| 20260906162101 | 22 | 0 | 1.6 | 6.4 | 0.00 | 0.46 | 0.00 | 43 | 1008.1 |
| 20260906161600 | 22 | 0 | 1.6 | 6.4 | 0.00 | 0.46 | 0.00 | 42 | 1008.2 |
| 20260906160444 | 22 | 0 | 0.0 | 6.4 | 0.00 | 0.46 | 0.00 | 43 | 1008.1 |
| 20260906155337 | 22 | 0 | 0.0 | 6.4 | 0.00 | 0.46 | 0.00 | 44 | 1008.2 |
| 20260906154839 | 22 | 0 | 0.0 | 1.6 | 0.00 | 0.46 | 0.00 | 47 | 1008.2 |
| 20260906154324 | 22 | 0 | 0.0 | 4.8 | 0.00 | 0.46 | 0.00 | 49 | 1008.2 |
| 20260906153817 | 21 | 0 | 0.0 | 4.8 | 0.00 | 0.46 | 0.00 | 49 | 1008.3 |
| 20260906153326 | 21 | 0 | 1.6 | 4.8 | 0.00 | 0.46 | 0.00 | 50 | 1008.3 |
| 20260906152818 | 21 | 0 | 0.0 | 4.8 | 0.00 | 0.46 | 0.00 | 49 | 1008.2 |
| 20260906152259 | 21 | 0 | 0.0 | 3.2 | 0.00 | 0.46 | 0.00 | 51 | 1008.3 |
| 20260906151744 | 21 | 0 | 0.0 | 0.0 | 0.00 | 0.46 | 0.00 | 53 | 1008.2 |
| 20260906151243 | 21 | 0 | 0.0 | 0.0 | 0.00 | 0.46 | 0.00 | 52 | 1008.2 |
| 20260906150746 | 21 | 0 | 0.0 | 0.0 | 0.00 | 0.46 | 0.00 | 52 | 1008.3 |
| 20260906150241 | 20 | 0 | 0.0 | 0.0 | 0.00 | 0.46 | 0.00 | 54 | 1008.3 |
| 20260906145750 | 20 | 0 | 0.0 | 0.0 | 0.00 | 0.46 | 0.00 | 56 | 1008.3 |
| 20260906145259 | 19 | 0 | 0.0 | 0.0 | 0.00 | 0.46 | 0.00 | 58 | 1008.2 |
| 20260906144802 | 19 | 0 | 0.0 | 0.0 | 0.00 | 0.46 | 0.00 | 58 | 1008.2 |
| 20260906143639 | 18 | 0 | 0.0 | 0.0 | 0.00 | 0.46 | 0.00 | 58 | 1008.3 |
| 20260906143123 | 17 | 0 | 0.0 | 0.0 | 0.00 | 0.46 | 0.00 | 61 | 1008.3 |
| 20260906142619 | 17 | 0 | 0.0 | 0.0 | 0.00 | 0.46 | 0.00 | 63 | 1008.2 |
| 20260906140220 | 14 | 0 | 0.0 | 0.0 | 0.00 | 0.46 | 0.00 | 69 | 1008.3 |
| 20260906135711 | 14 | 0 | 0.0 | 0.0 | 0.00 | 0.46 | 0.00 | 68 | 1008.2 |
| 20260906135212 | 14 | 0 | 0.0 | 0.0 | 0.00 | 0.46 | 0.00 | 65 | 1008.2 |
| 20260906134721 | 14 | 0 | 0.0 | 0.0 | 0.00 | 0.46 | 0.00 | 65 | 1008.3 |
| 20260906134214 | 14 | 0 | 0.0 | 0.0 | 0.00 | 0.46 | 0.00 | 66 | 1008.2 |
| 20260906133712 | 14 | 0 | 0.0 | 0.0 | 0.00 | 0.46 | 0.00 | 66 | 1008.2 |
| 20260906133211 | 13 | 0 | 0.0 | 0.0 | 0.00 | 0.46 | 0.00 | 66 | 1008.1 |
| 20260906132708 | 13 | 0 | 0.0 | 0.0 | 0.00 | 0.46 | 0.00 | 66 | 1008.1 |
| 20260906132156 | 13 | 0 | 0.0 | 0.0 | 0.00 | 0.46 | 0.00 | 66 | 1008.1 |
| 20260906131648 | 13 | 0 | 0.0 | 0.0 | 0.00 | 0.46 | 0.00 | 68 | 1008.0 |
| 20260906131131 | 12 | 0 | 0.0 | 0.0 | 0.00 | 0.46 | 0.00 | 70 | 1007.9 |
| 20260906130621 | 12 | 0 | 0.0 | 0.0 | 0.00 | 0.46 | 0.00 | 72 | 1007.9 |
| 20260906130131 | 12 | 0 | 0.0 | 0.0 | 0.00 | 0.46 | 0.00 | 73 | 1007.8 |
| 20260906125618 | 11 | 0 | 0.0 | 0.0 | 0.00 | 0.46 | 0.00 | 74 | 1007.8 |
| 20260906125122 | 11 | 0 | 0.0 | 0.0 | 0.00 | 0.46 | 0.00 | 74 | 1007.8 |
| 20260906124614 | 12 | 0 | 0.0 | 0.0 | 0.00 | 0.46 | 0.00 | 74 | 1007.7 |
| 20260906124101 | 12 | 0 | 0.0 | 0.0 | 0.00 | 0.46 | 0.00 | 73 | 1007.8 |
| 20260906122309 | 12 | 0 | 0.0 | 0.0 | 0.00 | 0.46 | 0.00 | 70 | 1007.9 |
| 20260906121156 | 12 | 0 | 0.0 | 0.0 | 0.00 | 0.46 | 0.00 | 70 | 1008.0 |
| 20260906120655 | 12 | 0 | 0.0 | 0.0 | 0.00 | 0.46 | 0.00 | 69 | 1008.0 |
| 20260906120202 | 12 | 0 | 0.0 | 0.0 | 0.00 | 0.46 | 0.00 | 69 | 1008.0 |
| 20260906115649 | 12 | 0 | 0.0 | 0.0 | 0.00 | 0.46 | 0.00 | 69 | 1008.1 |
| 20260906115151 | 12 | 0 | 0.0 | 0.0 | 0.00 | 0.46 | 0.00 | 70 | 1008.0 |
| 20260906114638 | 12 | 0 | 0.0 | 0.0 | 0.00 | 0.46 | 0.00 | 70 | 1008.0 |
| 20260906114133 | 12 | 0 | 0.0 | 0.0 | 0.00 | 0.46 | 0.00 | 70 | 1008.0 |
| 20260906113624 | 12 | 0 | 0.0 | 0.0 | 0.00 | 0.46 | 0.00 | 70 | 1008.0 |
| 20260906113115 | 12 | 0 | 0.0 | 0.0 | 0.00 | 0.46 | 0.00 | 70 | 1008.0 |
| 20260906112624 | 12 | 0 | 0.0 | 0.0 | 0.00 | 0.46 | 0.00 | 72 | 1008.0 |
| 20260906112111 | 12 | 0 | 0.0 | 0.0 | 0.00 | 0.46 | 0.00 | 72 | 1007.9 |
| 20260906111559 | 12 | 0 | 0.0 | 0.0 | 0.00 | 0.46 | 0.00 | 73 | 1007.9 |
| 20260906111053 | 12 | 0 | 0.0 | 0.0 | 0.00 | 0.46 | 0.00 | 72 | 1007.9 |
| 20260906110554 | 12 | 0 | 0.0 | 0.0 | 0.00 | 0.46 | 0.00 | 72 | 1007.8 |
| 20260906105428 | 12 | 0 | 0.0 | 0.0 | 0.00 | 0.46 | 0.00 | 73 | 1007.7 |
| 20260906104937 | 12 | 0 | 0.0 | 0.0 | 0.00 | 0.46 | 0.00 | 72 | 1007.7 |
| 20260906104423 | 12 | 0 | 0.0 | 0.0 | 0.00 | 0.46 | 0.00 | 74 | 1007.7 |
| 20260906103910 | 12 | 0 | 0.0 | 0.0 | 0.00 | 0.46 | 0.00 | 74 | 1007.8 |
| 20260906102744 | 12 | 0 | 0.0 | 0.0 | 0.00 | 0.46 | 0.00 | 76 | 1007.8 |
| 20260906102225 | 12 | 0 | 0.0 | 0.0 | 0.00 | 0.46 | 0.00 | 77 | 1007.7 |
| 20260906101722 | 12 | 0 | 0.0 | 0.0 | 0.00 | 0.46 | 0.00 | 76 | 1007.6 |
| 20260906100547 | 12 | 0 | 0.0 | 0.0 | 0.00 | 0.46 | 0.00 | 74 | 1007.6 |
| 20260906100046 | 12 | 0 | 0.0 | 0.0 | 0.00 | 0.46 | 0.00 | 72 | 1007.6 |
| 20260906095542 | 12 | 0 | 0.0 | 0.0 | 0.00 | 0.46 | 0.00 | 72 | 1007.6 |
| 20260906095049 | 13 | 0 | 0.0 | 0.0 | 0.00 | 0.46 | 0.00 | 72 | 1007.6 |
| 20260906094557 | 12 | 0 | 0.0 | 0.0 | 0.00 | 0.46 | 0.00 | 70 | 1007.6 |
| 20260906094057 | 12 | 0 | 0.0 | 0.0 | 0.00 | 0.46 | 0.00 | 70 | 1007.6 |
| 20260906092931 | 13 | 0 | 0.0 | 0.0 | 0.00 | 0.46 | 0.00 | 73 | 1007.6 |
| 20260906092421 | 13 | 0 | 0.0 | 0.0 | 0.00 | 0.46 | 0.00 | 73 | 1007.5 |
| 20260906091930 | 13 | 0 | 0.0 | 0.0 | 0.00 | 0.46 | 0.00 | 73 | 1007.4 |
| 20260906091411 | 13 | 0 | 0.0 | 0.0 | 0.00 | 0.46 | 0.00 | 73 | 1007.4 |
| 20260906090915 | 13 | 0 | 0.0 | 0.0 | 0.00 | 0.46 | 0.00 | 71 | 1007.4 |
| 20260906090423 | 13 | 0 | 0.0 | 0.0 | 0.00 | 0.46 | 0.00 | 71 | 1007.4 |
| 20260906085926 | 13 | 0 | 0.0 | 0.0 | 0.00 | 0.46 | 0.00 | 72 | 1007.3 |
| 20260906085436 | 13 | 0 | 0.0 | 0.0 | 0.00 | 0.46 | 0.00 | 73 | 1007.3 |
| 20260906084929 | 13 | 0 | 0.0 | 0.0 | 0.00 | 0.46 | 0.00 | 73 | 1007.4 |
| 20260906084430 | 12 | 0 | 0.0 | 0.0 | 0.00 | 0.46 | 0.00 | 74 | 1007.3 |
| 20260906083934 | 12 | 0 | 0.0 | 0.0 | 0.00 | 0.46 | 0.00 | 75 | 1007.2 |
| 20260906083434 | 12 | 0 | 0.0 | 0.0 | 0.00 | 0.46 | 0.00 | 77 | 1007.3 |
| 20260906082922 | 12 | 0 | 0.0 | 0.0 | 0.00 | 0.46 | 0.00 | 79 | 1007.2 |
| 20260906082423 | 12 | 0 | 0.0 | 0.0 | 0.00 | 0.46 | 0.00 | 80 | 1007.2 |
| 20260906081916 | 12 | 0 | 0.0 | 0.0 | 0.00 | 0.46 | 0.00 | 81 | 1007.2 |
| 20260906081406 | 11 | 0 | 0.0 | 0.0 | 0.00 | 0.46 | 0.00 | 83 | 1007.2 |
| 20260906080856 | 11 | 0 | 0.0 | 0.0 | 0.00 | 0.46 | 0.00 | 84 | 1007.2 |
| 20260906075709 | 11 | 0 | 0.0 | 0.0 | 0.00 | 0.46 | 0.00 | 87 | 1007.2 |
| 20260906075158 | 11 | 0 | 0.0 | 0.0 | 0.00 | 0.46 | 0.00 | 88 | 1007.2 |
| 20260906074650 | 11 | 0 | 0.0 | 0.0 | 0.00 | 0.46 | 0.00 | 89 | 1007.3 |
| 20260906074146 | 11 | 0 | 0.0 | 0.0 | 0.00 | 0.46 | 0.00 | 89 | 1007.3 |
| 20260906073627 | 11 | 0 | 0.0 | 0.0 | 0.00 | 0.46 | 0.00 | 90 | 1007.3 |
| 20260906073126 | 11 | 0 | 0.0 | 0.0 | 0.00 | 0.46 | 0.00 | 90 | 1007.3 |
| 20260906072619 | 11 | 0 | 0.0 | 0.0 | 0.00 | 0.46 | 0.00 | 90 | 1007.3 |
| 20260906071446 | 11 | 0 | 0.0 | 0.0 | 0.00 | 0.46 | 0.00 | 90 | 1007.4 |
| 20260906070941 | 11 | 0 | 0.0 | 0.0 | 0.00 | 0.46 | 0.00 | 91 | 1007.6 |
| 20260906070427 | 11 | 0 | 0.0 | 0.0 | 0.00 | 0.46 | 0.00 | 91 | 1007.3 |
| 20260906065924 | 11 | 0 | 0.0 | 0.0 | 0.00 | 0.46 | 0.00 | 91 | 1007.3 |
| 20260906065414 | 11 | 0 | 0.0 | 0.0 | 0.00 | 0.46 | 0.00 | 92 | 1007.3 |
| 20260906064921 | 10 | 0 | 0.0 | 0.0 | 0.00 | 0.46 | 0.00 | 92 | 1007.2 |
| 20260906064420 | 10 | 0 | 0.0 | 0.0 | 0.00 | 0.46 | 0.00 | 92 | 1007.4 |
| 20260906063920 | 10 | 0 | 0.0 | 0.0 | 0.00 | 0.46 | 0.00 | 92 | 1007.4 |
| 20260906063415 | 11 | 0 | 0.0 | 0.0 | 0.00 | 0.46 | 0.00 | 92 | 1007.2 |
| 20260906062858 | 10 | 0 | 0.0 | 0.0 | 0.00 | 0.46 | 0.00 | 92 | 1007.3 |
| 20260906062347 | 11 | 0 | 0.0 | 0.0 | 0.00 | 0.46 | 0.00 | 92 | 1007.4 |
| 20260906061854 | 11 | 0 | 0.0 | 0.0 | 0.00 | 0.46 | 0.00 | 92 | 1007.5 |
| 20260906061358 | 11 | 0 | 0.0 | 0.0 | 0.00 | 0.46 | 0.00 | 92 | 1007.5 |
| 20260906060838 | 11 | 0 | 0.0 | 0.0 | 0.00 | 0.46 | 0.00 | 92 | 1007.4 |
| 20260906060345 | 11 | 0 | 0.0 | 0.0 | 0.00 | 0.46 | 0.00 | 92 | 1007.4 |
| 20260906055837 | 11 | 0 | 0.0 | 0.0 | 0.00 | 0.46 | 0.46 | 92 | 1007.4 |
| 20260906055333 | 11 | 0 | 0.0 | 0.0 | 0.00 | 0.46 | 0.46 | 92 | 1007.5 |
| 20260906054827 | 11 | 0 | 0.0 | 0.0 | 0.00 | 0.46 | 0.46 | 92 | 1007.5 |
| 20260906054314 | 11 | 0 | 0.0 | 0.0 | 0.00 | 0.46 | 0.46 | 91 | 1007.6 |
| 20260906053142 | 11 | 0 | 0.0 | 0.0 | 0.00 | 0.46 | 0.46 | 91 | 1007.7 |
| 20260906052023 | 11 | 0 | 0.0 | 0.0 | 0.00 | 0.46 | 0.46 | 91 | 1007.8 |
| 20260906050837 | 11 | 0 | 0.0 | 0.0 | 0.00 | 0.46 | 0.46 | 90 | 1008.0 |
| 20260906050324 | 12 | 0 | 0.0 | 0.0 | 0.00 | 0.46 | 0.46 | 90 | 1007.9 |
| 20260906045819 | 12 | 0 | 0.0 | 0.0 | 0.00 | 0.46 | 0.46 | 89 | 1008.1 |
| 20260906044637 | 12 | 0 | 0.0 | 0.0 | 0.00 | 0.46 | 0.46 | 87 | 1008.3 |
| 20260906044143 | 12 | 0 | 0.0 | 0.0 | 0.00 | 0.46 | 0.46 | 86 | 1008.3 |
| 20260906043014 | 13 | 0 | 0.0 | 3.2 | 0.13 | 0.46 | 0.46 | 84 | 1008.3 |
| 20260906041839 | 14 | 0 | 1.6 | 12.9 | 0.51 | 0.41 | 0.46 | 76 | 1008.3 |
| 20260906041344 | 15 | 0 | 3.2 | 12.9 | 1.70 | 0.33 | 0.38 | 72 | 1008.3 |
| 20260906040836 | 16 | 0 | 4.8 | 12.9 | 3.02 | 0.10 | 0.15 | 65 | 1008.6 |
| 20260906040331 | 18 | 0 | 1.6 | 12.9 | 0.00 | 0.00 | 0.03 | 58 | 1008.0 |
| 20260906035830 | 18 | 0 | 0.0 | 6.4 | 0.00 | 0.00 | 0.00 | 46 | 1007.7 |
| 20260906035324 | 18 | 0 | 0.0 | 0.0 | 0.00 | 0.00 | 0.00 | 48 | 1007.7 |
| 20260906034219 | 18 | 0 | 0.0 | 0.0 | 0.00 | 0.00 | 0.00 | 46 | 1007.5 |
| 20260906033718 | 18 | 0 | 0.0 | 0.0 | 0.00 | 0.00 | 0.00 | 45 | 1007.4 |
| 20260906033218 | 18 | 0 | 0.0 | 0.0 | 0.00 | 0.00 | 0.00 | 45 | 1007.3 |
| 20260906032711 | 18 | 0 | 0.0 | 0.0 | 0.00 | 0.00 | 0.00 | 45 | 1007.3 |
| 20260906031527 | 18 | 0 | 0.0 | 0.0 | 0.00 | 0.00 | 0.00 | 45 | 1007.1 |
| 20260906030404 | 18 | 0 | 0.0 | 0.0 | 0.00 | 0.00 | 0.00 | 45 | 1006.9 |
| 20260906025909 | 18 | 0 | 0.0 | 0.0 | 0.00 | 0.00 | 0.00 | 45 | 1006.9 |
| 20260906024745 | 18 | 0 | 0.0 | 0.0 | 0.00 | 0.00 | 0.00 | 45 | 1006.8 |
| 20260906024226 | 18 | 0 | 0.0 | 0.0 | 0.00 | 0.00 | 0.00 | 45 | 1006.7 |
| 20260906023039 | 17 | 0 | 0.0 | 0.0 | 0.00 | 0.00 | 0.00 | 47 | 1006.7 |
| 20260906021930 | 18 | 0 | 0.0 | 0.0 | 0.00 | 0.00 | 0.00 | 46 | 1006.6 |
| 20260906021421 | 18 | 0 | 0.0 | 0.0 | 0.00 | 0.00 | 0.00 | 46 | 1006.4 |
| 20260906020925 | 18 | 0 | 0.0 | 0.0 | 0.00 | 0.00 | 0.00 | 45 | 1006.2 |
| 20260906020432 | 18 | 0 | 0.0 | 0.0 | 0.00 | 0.00 | 0.00 | 44 | 1006.2 |
| 20260906015930 | 18 | 0 | 0.0 | 0.0 | 0.00 | 0.00 | 0.00 | 44 | 1006.2 |
| 20260906014800 | 19 | 0 | 0.0 | 0.0 | 0.00 | 0.00 | 0.00 | 42 | 1006.1 |
| 20260906014256 | 19 | 0 | 0.0 | 0.0 | 0.00 | 0.00 | 0.00 | 42 | 1006.2 |
| 20260906013750 | 20 | 0 | 0.0 | 0.0 | 0.00 | 0.00 | 0.00 | 41 | 1006.1 |
| 20260906013253 | 20 | 0 | 0.0 | 0.0 | 0.00 | 0.00 | 0.00 | 40 | 1006.0 |
| 20260906012757 | 20 | 0 | 0.0 | 0.0 | 0.00 | 0.00 | 0.00 | 39 | 1006.0 |
| 20260906011641 | 21 | 0 | 0.0 | 0.0 | 0.00 | 0.00 | 0.00 | 38 | 1006.0 |
| 20260906010503 | 22 | 0 | 0.0 | 4.8 | 0.00 | 0.00 | 0.00 | 36 | 1005.9 |
| 20260906010000 | 22 | 0 | 0.0 | 4.8 | 0.00 | 0.00 | 0.00 | 35 | 1005.9 |
| 20260906005508 | 22 | 0 | 0.0 | 11.3 | 0.00 | 0.00 | 0.00 | 35 | 1005.9 |
| 20260906004956 | 22 | 0 | 0.0 | 11.3 | 0.00 | 0.00 | 0.00 | 34 | 1005.9 |
| 20260906004458 | 23 | 0 | 1.6 | 11.3 | 0.00 | 0.00 | 0.00 | 34 | 1005.9 |
| 20260906003955 | 23 | 0 | 1.6 | 11.3 | 0.00 | 0.00 | 0.00 | 33 | 1005.8 |
| 20260906002813 | 23 | 0 | 0.0 | 1.6 | 0.00 | 0.00 | 0.00 | 32 | 1005.9 |
| 20260906002253 | 24 | 0 | 1.6 | 8.0 | 0.00 | 0.00 | 0.00 | 32 | 1005.8 |
| 20260906001737 | 24 | 0 | 1.6 | 8.0 | 0.00 | 0.00 | 0.00 | 32 | 1005.8 |
| 20260906001236 | 24 | 0 | 0.0 | 8.0 | 0.00 | 0.00 | 0.00 | 32 | 1005.8 |
| 20260906000741 | 24 | 0 | 0.0 | 8.0 | 0.00 | 0.00 | 0.00 | 31 | 1005.9 |
| 20260905235615 | 24 | 0 | 1.6 | 8.0 | 0.00 | 0.00 | 0.00 | 32 | 1005.8 |
| 20260905235103 | 24 | 0 | 1.6 | 8.0 | 0.00 | 0.00 | 0.00 | 32 | 1005.7 |
| 20260905234554 | 24 | 0 | 0.0 | 8.0 | 0.00 | 0.00 | 0.00 | 31 | 1005.7 |
| 20260905234102 | 24 | 0 | 1.6 | 11.3 | 0.00 | 0.00 | 0.00 | 30 | 1005.7 |
| 20260905233547 | 24 | 0 | 1.6 | 11.3 | 0.00 | 0.00 | 0.00 | 31 | 1005.6 |
| 20260905231804 | 25 | 0 | 3.2 | 12.9 | 0.00 | 0.00 | 0.00 | 29 | 1005.5 |
| 20260905231308 | 25 | 0 | 1.6 | 12.9 | 0.00 | 0.00 | 0.00 | 29 | 1005.5 |
| 20260905230140 | 26 | 0 | 1.6 | 12.9 | 0.00 | 0.00 | 0.00 | 29 | 1005.4 |